{"data":{"norad_id":53960,"epoch":"2026-09-20T03:57:42.410880Z","epoch_age_seconds":43450,"freshness":"FRESH","line1":"1 53960U 22123A   26263.16507420 -.00000105  00000+0  00000+0 0  9992","line2":"2 53960   0.0282  87.5564 0001904  18.7002 209.1442  1.00271404 14482","mean_motion":1.00271404,"eccentricity":0.0001904,"inclination_deg":0.0282,"raan_deg":87.5564,"arg_perigee_deg":18.7002,"mean_anomaly_deg":209.1442,"bstar":0,"rev_number":1448,"period_min":1436.1023607488,"perigee_km":35778.673584358,"apogee_km":35794.729954961,"semimajor_km":42164.83876966,"source":"CELESTRAK","updated_at":"2026-09-20T09:00:35.688004Z"}}